Station History


Daily Summary for January 19, 2012 Units:  English    Metric   Both
« Previous Day
Next Day »
Daily Weekly Monthly Yearly Custom
  High: Low: Average:
Temperature: 61.8 °F 28.1 °F 44.3 °F
Dew Point: 35.6 °F 24.5 °F 30.2 °F
Humidity: 89% 32% 61%
Wind Speed: 3.5mph 0.0mph 1.7mph
Wind Gust: 3.5mph - -
Wind- - WSW
Pressure: 30.27 in 30.06 in -
Precipitation: 0.00 in    
Historical Graphs
 
 
Tabular Data for January 19, 2012
Time Temperature Dew Point Pressure Wind Wind Speed Wind Gust Humidity Rainfall Rate (Hourly)
00:02 33.3 °F 27.8 °F 30.27 in Calm     80% 0.00 in
00:07 33.4 °F 27.9 °F 30.26 in Calm     80% 0.00 in
00:12 33.2 °F 27.4 °F 30.26 in Calm     79% 0.00 in
00:17 33.0 °F 27.2 °F 30.26 in Calm     79% 0.00 in
00:22 32.8 °F 27.0 °F 30.26 in Calm     79% 0.00 in
00:27 32.9 °F 27.7 °F 30.26 in Calm     81% 0.00 in
00:33 33.5 °F 28.0 °F 30.27 in Calm     80% 0.00 in
00:38 33.6 °F 27.5 °F 30.27 in Calm     78% 0.00 in
00:43 33.8 °F 27.7 °F 30.26 in Calm     78% 0.00 in
00:48 33.8 °F 27.4 °F 30.27 in Calm     77% 0.00 in
00:53 33.6 °F 27.2 °F 30.26 in Calm     77% 0.00 in
00:58 33.4 °F 27.3 °F 30.26 in Calm     78% 0.00 in
01:03 33.1 °F 27.0 °F 30.26 in Calm     78% 0.00 in
01:08 32.9 °F 26.8 °F 30.26 in Calm     78% 0.00 in
01:13 32.6 °F 26.5 °F 30.26 in Calm     78% 0.00 in
01:18 32.3 °F 26.5 °F 30.26 in Calm     79% 0.00 in
01:23 32.2 °F 26.7 °F 30.26 in Calm     80% 0.00 in
01:28 32.1 °F 26.9 °F 30.26 in Calm     81% 0.00 in
01:34 32.0 °F 26.8 °F 30.26 in Calm     81% 0.00 in
01:39 32.0 °F 27.1 °F 30.26 in Calm     82% 0.00 in
01:44 31.8 °F 26.6 °F 30.26 in Calm     81% 0.00 in
01:49 31.6 °F 26.4 °F 30.26 in Calm     81% 0.00 in
01:54 31.3 °F 26.1 °F 30.26 in Calm     81% 0.00 in
01:59 31.3 °F 26.7 °F 30.26 in Calm     83% 0.00 in
02:04 31.4 °F 26.8 °F 30.26 in Calm     83% 0.00 in
02:09 31.3 °F 26.7 °F 30.26 in Calm     83% 0.00 in
02:14 31.1 °F 26.5 °F 30.26 in Calm     83% 0.00 in
02:19 31.0 °F 26.4 °F 30.26 in Calm     83% 0.00 in
02:24 30.8 °F 26.2 °F 30.26 in Calm     83% 0.00 in
02:29 30.7 °F 26.4 °F 30.26 in Calm     84% 0.00 in
02:34 30.8 °F 26.8 °F 30.26 in Calm     85% 0.00 in
02:39 30.7 °F 26.7 °F 30.26 in Calm     85% 0.00 in
02:44 30.8 °F 26.8 °F 30.26 in Calm     85% 0.00 in
02:49 30.9 °F 26.6 °F 30.26 in Calm     84% 0.00 in
02:54 30.9 °F 26.6 °F 30.25 in Calm     84% 0.00 in
02:59 31.1 °F 27.1 °F 30.25 in Calm     85% 0.00 in
03:04 31.5 °F 26.9 °F 30.25 in Calm     83% 0.00 in
03:09 31.7 °F 26.8 °F 30.25 in Calm     82% 0.00 in
03:14 31.7 °F 26.5 °F 30.25 in Calm     81% 0.00 in
03:19 31.4 °F 26.5 °F 30.25 in Calm     82% 0.00 in
03:24 31.3 °F 26.4 °F 30.25 in Calm     82% 0.00 in
03:29 31.0 °F 26.1 °F 30.24 in Calm     82% 0.00 in
03:34 30.7 °F 25.9 °F 30.24 in Calm     82% 0.00 in
03:39 30.4 °F 25.6 °F 30.24 in Calm     82% 0.00 in
03:44 30.4 °F 26.1 °F 30.24 in Calm     84% 0.00 in
03:49 30.4 °F 26.4 °F 30.24 in Calm     85% 0.00 in
03:54 30.5 °F 26.2 °F 30.24 in Calm     84% 0.00 in
03:59 30.4 °F 26.1 °F 30.23 in Calm     84% 0.00 in
04:04 30.3 °F 26.3 °F 30.23 in Calm     85% 0.00 in
04:09 30.2 °F 25.9 °F 30.23 in Calm     84% 0.00 in
04:14 30.0 °F 25.8 °F 30.23 in Calm     84% 0.00 in
04:19 29.9 °F 25.9 °F 30.23 in Calm     85% 0.00 in
04:24 29.8 °F 25.8 °F 30.23 in Calm     85% 0.00 in
04:29 29.8 °F 26.1 °F 30.23 in Calm     86% 0.00 in
04:34 30.0 °F 26.3 °F 30.23 in Calm     86% 0.00 in
04:40 30.0 °F 26.0 °F 30.23 in Calm     85% 0.00 in
04:45 29.8 °F 25.8 °F 30.23 in Calm     85% 0.00 in
04:50 29.6 °F 25.6 °F 30.23 in Calm     85% 0.00 in
04:55 29.3 °F 25.1 °F 30.23 in Calm     84% 0.00 in
05:00 28.9 °F 25.0 °F 30.23 in Calm     85% 0.00 in
05:05 28.8 °F 25.1 °F 30.23 in Calm     86% 0.00 in
05:10 28.6 °F 24.9 °F 30.23 in Calm     86% 0.00 in
05:15 28.7 °F 25.3 °F 30.23 in Calm     87% 0.00 in
05:20 28.7 °F 25.3 °F 30.22 in Calm     87% 0.00 in
05:25 28.7 °F 25.3 °F 30.23 in Calm     87% 0.00 in
05:30 28.6 °F 25.2 °F 30.22 in Calm     87% 0.00 in
05:35 28.6 °F 25.5 °F 30.22 in Calm     88% 0.00 in
05:40 28.4 °F 25.0 °F 30.23 in Calm     87% 0.00 in
05:45 28.1 °F 24.7 °F 30.22 in Calm     87% 0.00 in
05:50 28.3 °F 25.5 °F 30.22 in Calm     89% 0.00 in
05:55 28.7 °F 25.9 °F 30.22 in Calm     89% 0.00 in
06:00 29.0 °F 25.9 °F 30.22 in Calm     88% 0.00 in
06:05 29.1 °F 25.7 °F 30.22 in Calm     87% 0.00 in
06:10 29.1 °F 25.4 °F 30.23 in Calm     86% 0.00 in
06:15 29.1 °F 25.4 °F 30.23 in Calm     86% 0.00 in
06:20 29.3 °F 25.6 °F 30.23 in Calm     86% 0.00 in
06:25 29.6 °F 25.4 °F 30.23 in Calm     84% 0.00 in
06:30 29.6 °F 25.1 °F 30.23 in Calm     83% 0.00 in
06:35 29.5 °F 25.0 °F 30.23 in Calm     83% 0.00 in
06:40 29.3 °F 24.8 °F 30.23 in Calm     83% 0.00 in
06:46 29.0 °F 24.5 °F 30.23 in Calm     83% 0.00 in
06:51 28.9 °F 24.7 °F 30.23 in Calm     84% 0.00 in
06:56 28.8 °F 24.6 °F 30.24 in Calm     84% 0.00 in
07:01 28.8 °F 24.6 °F 30.23 in Calm     84% 0.00 in
07:06 28.8 °F 24.9 °F 30.24 in Calm     85% 0.00 in
07:11 28.8 °F 24.9 °F 30.24 in Calm     85% 0.00 in
07:16 28.7 °F 24.5 °F 30.24 in Calm     84% 0.00 in
07:21 28.7 °F 24.8 °F 30.24 in Calm     85% 0.00 in
07:26 28.7 °F 25.0 °F 30.24 in Calm     86% 0.00 in
07:31 28.8 °F 24.9 °F 30.24 in Calm     85% 0.00 in
07:36 28.7 °F 25.0 °F 30.25 in Calm     86% 0.00 in
07:41 28.9 °F 25.2 °F 30.25 in Calm     86% 0.00 in
07:46 29.1 °F 25.4 °F 30.25 in Calm     86% 0.00 in
07:51 29.4 °F 25.7 °F 30.25 in Calm     86% 0.00 in
07:56 29.8 °F 26.1 °F 30.25 in Calm     86% 0.00 in
08:01 30.5 °F 26.2 °F 30.25 in Calm     84% 0.00 in
08:06 31.1 °F 26.8 °F 30.25 in Calm     84% 0.00 in
08:11 32.0 °F 27.4 °F 30.25 in Calm     83% 0.00 in
08:16 32.5 °F 27.6 °F 30.25 in Calm     82% 0.00 in
08:21 32.8 °F 27.9 °F 30.25 in Calm     82% 0.00 in
08:26 33.3 °F 28.4 °F 30.25 in Calm     82% 0.00 in
08:31 34.3 °F 28.8 °F 30.25 in Calm     80% 0.00 in
08:36 35.6 °F 29.1 °F 30.24 in Calm     77% 0.00 in
08:41 36.2 °F 29.7 °F 30.24 in Calm     77% 0.00 in
08:46 37.1 °F 29.2 °F 30.24 in Calm     73% 0.00 in
08:51 38.3 °F 29.7 °F 30.24 in Calm     71% 0.00 in
08:56 39.3 °F 30.0 °F 30.24 in Calm     69% 0.00 in
09:01 40.0 °F 29.9 °F 30.24 in Calm     67% 0.00 in
09:06 40.8 °F 29.9 °F 30.24 in Calm     65% 0.00 in
09:11 41.5 °F 30.2 °F 30.24 in Calm     64% 0.00 in
09:16 42.2 °F 30.1 °F 30.24 in Calm     62% 0.00 in
09:21 42.7 °F 30.2 °F 30.23 in West 1.2 mph   61% 0.00 in
09:26 43.3 °F 30.3 °F 30.23 in Calm     60% 0.00 in
09:31 43.8 °F 30.4 °F 30.23 in Calm     59% 0.00 in
09:36 44.4 °F 31.0 °F 30.23 in Calm     59% 0.00 in
09:41 44.8 °F 30.5 °F 30.23 in Calm     57% 0.00 in
09:46 45.3 °F 30.1 °F 30.23 in SE 1.2 mph   55% 0.00 in
09:51 45.7 °F 29.1 °F 30.23 in Calm     52% 0.00 in
09:56 46.0 °F 29.3 °F 30.23 in Calm     52% 0.00 in
10:01 46.3 °F 29.6 °F 30.23 in Calm     52% 0.00 in
10:06 46.6 °F 29.4 °F 30.22 in Calm     51% 0.00 in
10:11 46.7 °F 29.0 °F 30.22 in Calm     50% 0.00 in
10:16 47.0 °F 28.8 °F 30.22 in Calm     49% 0.00 in
10:21 47.6 °F 29.4 °F 30.22 in Calm     49% 0.00 in
10:26 48.2 °F 30.4 °F 30.22 in Calm     50% 0.00 in
10:31 49.1 °F 29.2 °F 30.22 in Calm     46% 0.00 in
10:36 49.6 °F 28.6 °F 30.21 in West 1.2 mph 1.2 mph 44% 0.00 in
10:41 49.9 °F 29.4 °F 30.21 in Calm     45% 0.00 in
10:46 50.3 °F 29.2 °F 30.21 in Calm   0.2 mph 44% 0.00 in
10:51 50.4 °F 29.3 °F 30.21 in Calm     44% 0.00 in
10:56 50.6 °F 29.5 °F 30.21 in WNW 1.2 mph 1.2 mph 44% 0.00 in
11:01 50.7 °F 29.6 °F 30.21 in Calm   0.1 mph 44% 0.00 in
11:06 50.9 °F 29.2 °F 30.20 in SW 1.2 mph 1.2 mph 43% 0.00 in
11:11 51.3 °F 30.1 °F 30.20 in SW 1.2 mph 1.2 mph 44% 0.00 in
11:16 51.8 °F 30.0 °F 30.20 in West 2.3 mph 2.3 mph 43% 0.00 in
11:21 52.3 °F 29.9 °F 30.20 in SW 1.2 mph   42% 0.00 in
11:26 52.8 °F 29.7 °F 30.20 in SSW 1.2 mph 1.2 mph 41% 0.00 in
11:31 53.4 °F 30.3 °F 30.20 in WSW 1.0 mph 1.0 mph 41% 0.00 in
11:36 54.0 °F 30.8 °F 30.19 in WNW 1.2 mph 1.2 mph 41% 0.00 in
11:42 54.2 °F 30.4 °F 30.19 in West 2.3 mph 2.3 mph 40% 0.00 in
11:47 54.5 °F 30.0 °F 30.19 in SW 1.2 mph 1.2 mph 39% 0.00 in
11:52 54.8 °F 30.3 °F 30.18 in SSW 1.2 mph   39% 0.00 in
11:57 55.0 °F 29.8 °F 30.18 in SW 1.2 mph 1.2 mph 38% 0.00 in
12:02 55.3 °F 30.1 °F 30.17 in Calm     38% 0.00 in
12:07 55.3 °F 30.1 °F 30.17 in South 1.2 mph   38% 0.00 in
12:12 55.3 °F 30.1 °F 30.17 in SSW 1.2 mph   38% 0.00 in
12:17 55.3 °F 30.1 °F 30.16 in WSW 1.2 mph   38% 0.00 in
12:22 55.3 °F 29.4 °F 30.16 in Calm     37% 0.00 in
12:27 55.6 °F 31.0 °F 30.15 in Calm     39% 0.00 in
12:32 55.8 °F 29.2 °F 30.14 in Calm     36% 0.00 in
12:37 55.9 °F 30.0 °F 30.15 in West 1.2 mph   37% 0.00 in
12:42 55.8 °F 29.9 °F 30.15 in WNW 1.2 mph 1.2 mph 37% 0.00 in
12:47 56.0 °F 29.4 °F 30.15 in NW 2.0 mph 2.0 mph 36% 0.00 in
12:52 56.4 °F 31.1 °F 30.14 in West 1.2 mph 1.2 mph 38% 0.00 in
12:57 56.9 °F 30.9 °F 30.14 in NNW 1.2 mph 1.2 mph 37% 0.00 in
13:02 56.9 °F 30.9 °F 30.14 in SW 1.2 mph   37% 0.00 in
13:07 57.0 °F 31.0 °F 30.14 in North 3.5 mph 3.5 mph 37% 0.00 in
13:12 57.3 °F 31.2 °F 30.14 in North 3.5 mph 3.5 mph 37% 0.00 in
13:17 58.2 °F 32.0 °F 30.13 in ENE 2.3 mph   37% 0.00 in
13:22 59.1 °F 33.5 °F 30.12 in ENE 1.2 mph 1.2 mph 38% 0.00 in
13:27 59.3 °F 30.2 °F 30.12 in WSW 1.2 mph 1.2 mph 33% 0.00 in
13:32 58.9 °F 29.8 °F 30.12 in West 1.2 mph 1.2 mph 33% 0.00 in
13:37 58.7 °F 30.4 °F 30.12 in Calm     34% 0.00 in
13:42 58.8 °F 31.9 °F 30.12 in NE 2.3 mph 2.3 mph 36% 0.00 in
13:47 59.1 °F 30.7 °F 30.11 in Calm     34% 0.00 in
13:52 59.3 °F 30.2 °F 30.11 in WNW 1.2 mph 1.2 mph 33% 0.00 in
13:57 59.7 °F 30.5 °F 30.11 in Calm     33% 0.00 in
14:02 60.3 °F 30.3 °F 30.11 in NNW 3.5 mph 3.5 mph 32% 0.00 in
14:07 60.2 °F 31.0 °F 30.10 in West 1.2 mph   33% 0.00 in
14:12 60.3 °F 31.0 °F 30.10 in Calm     33% 0.00 in
14:17 60.8 °F 31.5 °F 30.10 in North 2.0 mph 2.0 mph 33% 0.00 in
14:22 60.6 °F 30.6 °F 30.10 in North 1.2 mph 1.2 mph 32% 0.00 in
14:27 60.6 °F 31.3 °F 30.10 in WNW 2.3 mph 2.3 mph 33% 0.00 in
14:33 60.6 °F 30.6 °F 30.09 in ENE 1.2 mph 1.2 mph 32% 0.00 in
14:38 60.4 °F 30.4 °F 30.09 in West 1.2 mph 1.2 mph 32% 0.00 in
14:43 60.9 °F 31.6 °F 30.09 in SW 1.2 mph 1.2 mph 33% 0.00 in
14:48 61.5 °F 31.3 °F 30.09 in NW 1.2 mph 1.2 mph 32% 0.00 in
14:53 61.4 °F 31.3 °F 30.09 in NNE 3.0 mph 3.0 mph 32% 0.00 in
14:58 61.3 °F 31.9 °F 30.09 in SW 2.0 mph 2.0 mph 33% 0.00 in
15:03 61.8 °F 31.6 °F 30.09 in NW 2.3 mph 2.3 mph 32% 0.00 in
15:08 61.6 °F 31.4 °F 30.09 in NNW 2.3 mph 2.3 mph 32% 0.00 in
15:13 61.5 °F 31.3 °F 30.08 in NNW 3.5 mph 3.5 mph 32% 0.00 in
15:18 60.8 °F 31.5 °F 30.08 in WNW 2.3 mph 2.3 mph 33% 0.00 in
15:23 60.7 °F 32.1 °F 30.08 in NNE 2.0 mph 2.0 mph 34% 0.00 in
15:28 60.8 °F 31.5 °F 30.08 in WSW 1.2 mph 1.2 mph 33% 0.00 in
15:33 61.1 °F 31.8 °F 30.08 in WNW 1.2 mph 1.2 mph 33% 0.00 in
15:38 60.9 °F 31.6 °F 30.08 in West 1.2 mph 1.2 mph 33% 0.00 in
15:43 60.4 °F 31.9 °F 30.08 in North 1.2 mph 1.2 mph 34% 0.00 in
15:48 59.8 °F 32.1 °F 30.08 in NNW 2.3 mph 2.3 mph 35% 0.00 in
15:53 59.2 °F 31.5 °F 30.08 in NW 2.3 mph 2.3 mph 35% 0.00 in
15:58 58.7 °F 32.5 °F 30.08 in NNW 2.3 mph   37% 0.00 in
16:03 58.2 °F 32.0 °F 30.08 in North 2.3 mph   37% 0.00 in
16:08 57.8 °F 33.0 °F 30.08 in NW 1.2 mph 1.2 mph 39% 0.00 in
16:13 57.4 °F 32.6 °F 30.08 in NNE 3.5 mph 3.5 mph 39% 0.00 in
16:18 57.0 °F 32.9 °F 30.08 in NNW 1.2 mph 1.2 mph 40% 0.00 in
16:23 56.7 °F 32.0 °F 30.08 in West 1.2 mph 1.2 mph 39% 0.00 in
16:28 56.4 °F 31.7 °F 30.08 in NW 2.3 mph 2.3 mph 39% 0.00 in
16:33 56.1 °F 32.1 °F 30.08 in Calm     40% 0.00 in
16:38 55.8 °F 31.8 °F 30.09 in NNW 2.3 mph 2.3 mph 40% 0.00 in
16:43 55.5 °F 32.2 °F 30.09 in WNW 1.2 mph 1.2 mph 41% 0.00 in
16:48 55.2 °F 32.5 °F 30.09 in WNW 2.3 mph 2.3 mph 42% 0.00 in
16:53 54.9 °F 32.2 °F 30.09 in NNW 2.3 mph 2.3 mph 42% 0.00 in
16:58 54.7 °F 32.0 °F 30.10 in NNW 2.3 mph 2.3 mph 42% 0.00 in
17:03 54.5 °F 32.4 °F 30.10 in NW 1.2 mph 1.2 mph 43% 0.00 in
17:08 54.3 °F 32.3 °F 30.10 in NW 2.3 mph 2.3 mph 43% 0.00 in
17:13 54.0 °F 32.0 °F 30.11 in NW 2.3 mph 2.3 mph 43% 0.00 in
17:18 53.8 °F 31.8 °F 30.11 in NNW 2.3 mph 2.3 mph 43% 0.00 in
17:23 53.6 °F 31.6 °F 30.10 in NNW 1.2 mph   43% 0.00 in
17:29 53.4 °F 32.0 °F 30.11 in Calm     44% 0.00 in
17:34 53.2 °F 32.4 °F 30.11 in Calm     45% 0.00 in
17:39 53.0 °F 32.2 °F 30.12 in NNW 1.2 mph 1.2 mph 45% 0.00 in
17:44 52.8 °F 32.6 °F 30.11 in Calm     46% 0.00 in
17:49 52.5 °F 32.3 °F 30.11 in Calm     46% 0.00 in
17:54 52.4 °F 32.7 °F 30.12 in West 1.2 mph   47% 0.00 in
17:59 52.3 °F 32.6 °F 30.12 in Calm     47% 0.00 in
18:04 52.1 °F 33.0 °F 30.13 in WNW 1.2 mph 1.2 mph 48% 0.00 in
18:09 51.8 °F 33.2 °F 30.12 in North 2.3 mph 2.3 mph 49% 0.00 in
18:14 51.6 °F 33.6 °F 30.12 in Calm     50% 0.00 in
18:19 51.4 °F 33.4 °F 30.12 in NNW 1.2 mph 1.2 mph 50% 0.00 in
18:24 51.1 °F 33.6 °F 30.12 in North 1.2 mph   51% 0.00 in
18:29 50.8 °F 33.8 °F 30.12 in North 1.2 mph   52% 0.00 in
18:34 50.7 °F 33.7 °F 30.13 in NNW 3.5 mph 3.5 mph 52% 0.00 in
18:39 50.5 °F 34.0 °F 30.12 in NW 2.3 mph 2.3 mph 53% 0.00 in
18:44 50.3 °F 34.3 °F 30.12 in North 1.2 mph 1.2 mph 54% 0.00 in
18:49 50.1 °F 35.0 °F 30.11 in Calm     56% 0.00 in
18:54 49.8 °F 34.7 °F 30.12 in Calm     56% 0.00 in
18:59 49.8 °F 34.7 °F 30.12 in Calm     56% 0.00 in
19:04 49.8 °F 34.7 °F 30.12 in Calm     56% 0.00 in
19:09 49.7 °F 34.6 °F 30.11 in Calm     56% 0.00 in
19:14 49.5 °F 34.9 °F 30.11 in Calm     57% 0.00 in
19:19 49.3 °F 34.7 °F 30.11 in Calm     57% 0.00 in
19:24 49.2 °F 34.6 °F 30.11 in Calm     57% 0.00 in
19:29 49.1 °F 34.9 °F 30.11 in Calm     58% 0.00 in
19:34 49.1 °F 34.5 °F 30.11 in Calm     57% 0.00 in
19:39 49.0 °F 34.9 °F 30.10 in Calm     58% 0.00 in
19:40 49.0 °F 34.9 °F 30.10 in Calm     58% 0.00 in
19:45 49.0 °F 34.9 °F 30.09 in Calm     58% 0.00 in
19:50 49.0 °F 34.9 °F 30.09 in ESE 1.0 mph 1.0 mph 58% 0.00 in
19:55 49.1 °F 34.9 °F 30.09 in Calm     58% 0.00 in
20:00 49.1 °F 34.9 °F 30.09 in Calm     58% 0.00 in
20:05 49.1 °F 35.4 °F 30.09 in Calm     59% 0.00 in
20:10 49.1 °F 34.9 °F 30.08 in Calm     58% 0.00 in
20:15 49.1 °F 35.4 °F 30.08 in Calm     59% 0.00 in
20:20 49.1 °F 34.9 °F 30.09 in Calm     58% 0.00 in
20:25 49.2 °F 35.0 °F 30.09 in Calm     58% 0.00 in
20:30 49.3 °F 35.1 °F 30.11 in Calm     58% 0.00 in
20:35 49.3 °F 35.1 °F 30.11 in Calm     58% 0.00 in
20:40 49.3 °F 35.1 °F 30.10 in South 1.2 mph 1.2 mph 58% 0.00 in
20:45 49.2 °F 35.5 °F 30.10 in Calm     59% 0.00 in
20:50 49.1 °F 35.4 °F 30.10 in WSW 1.2 mph 1.2 mph 59% 0.00 in
20:55 48.9 °F 35.6 °F 30.10 in Calm     60% 0.00 in
21:00 48.8 °F 35.5 °F 30.10 in Calm     60% 0.00 in
21:01 48.8 °F 35.5 °F 30.10 in South 1.2 mph 1.2 mph 60% 0.00 in
21:06 48.7 °F 35.4 °F 30.09 in Calm     60% 0.00 in
21:11 48.5 °F 35.2 °F 30.08 in SSW 1.2 mph   60% 0.00 in
21:16 48.5 °F 35.2 °F 30.07 in Calm     60% 0.00 in
21:21 48.4 °F 35.1 °F 30.07 in Calm     60% 0.00 in
21:26 48.4 °F 35.6 °F 30.06 in Calm     61% 0.00 in
21:31 48.3 °F 35.5 °F 30.07 in Calm     61% 0.00 in
21:36 48.3 °F 35.5 °F 30.08 in Calm     61% 0.00 in
21:41 48.3 °F 35.5 °F 30.08 in Calm     61% 0.00 in
21:46 48.2 °F 35.4 °F 30.09 in SW 1.0 mph 1.0 mph 61% 0.00 in
21:51 48.1 °F 35.3 °F 30.09 in Calm     61% 0.00 in
21:56 47.9 °F 35.1 °F 30.09 in SW 1.2 mph 1.2 mph 61% 0.00 in
22:01 47.8 °F 35.0 °F 30.09 in Calm     61% 0.00 in
22:06 47.6 °F 34.8 °F 30.09 in Calm     61% 0.00 in
22:11 47.5 °F 35.1 °F 30.09 in SW 1.2 mph   62% 0.00 in
22:16 47.4 °F 35.0 °F 30.09 in Calm     62% 0.00 in
22:21 47.3 °F 34.9 °F 30.09 in Calm     62% 0.00 in
22:26 47.3 °F 34.9 °F 30.09 in Calm     62% 0.00 in
22:31 47.2 °F 34.8 °F 30.10 in Calm     62% 0.00 in
22:36 47.2 °F 34.8 °F 30.11 in Calm     62% 0.00 in
22:37 47.2 °F 34.8 °F 30.11 in Calm     62% 0.00 in
22:42 47.2 °F 34.8 °F 30.11 in Calm     62% 0.00 in
22:48 47.2 °F 34.8 °F 30.11 in Calm     62% 0.00 in
22:53 47.2 °F 34.8 °F 30.12 in Calm     62% 0.00 in
22:58 47.2 °F 34.8 °F 30.12 in Calm     62% 0.00 in
23:03 47.2 °F 34.4 °F 30.12 in Calm     61% 0.00 in
23:08 47.2 °F 34.4 °F 30.11 in Calm     61% 0.00 in
23:13 47.2 °F 34.8 °F 30.11 in Calm     62% 0.00 in
23:18 47.2 °F 34.4 °F 30.12 in Calm     61% 0.00 in
23:23 47.2 °F 34.4 °F 30.12 in Calm     61% 0.00 in
23:28 47.3 °F 34.5 °F 30.11 in Calm     61% 0.00 in
23:33 47.3 °F 34.5 °F 30.12 in Calm     61% 0.00 in
23:38 47.5 °F 34.3 °F 30.12 in SW 1.2 mph   60% 0.00 in
23:43 47.5 °F 34.3 °F 30.12 in Calm     60% 0.00 in
23:48 47.6 °F 34.4 °F 30.11 in Calm     60% 0.00 in
23:53 47.5 °F 34.3 °F 30.11 in Calm     60% 0.00 in
23:58 47.5 °F 34.3 °F 30.11 in Calm     60% 0.00 in
Compliments of Weather Underground